Location: Gallinara
(44.0333°N, 8.2333°E)
Time: 10:30:43
(UTC+00:00)

SL-16 R/B - Pass Details

Date: 25 September 2020
Orbit: 842 x 846 km, 71.0° (Epoch: 24 October)

Event Time Altitude Azimuth Distance (km) Brightness Sun altitude
Exits shadow 03:06:52 58° 237° (WSW) 980 2.1 -23.8°
Maximum altitude 03:07:54 73° 296° (WNW) 886 2.1 -23.6°
Drops below altitude 10° 03:13:35 10° 22° (NNE) 2,474 5.2 -22.7°
Sets 03:16:03 0° 24° (NNE) 3,414 6.0 -22.3°
